IRNSS-1B

Last updated on Nov. 17, 2019, 4:19 a.m. UTC

1 39635U 14017A   19319.97827212  .00000088  00000-0  00000+0 0  9995
2 39635  29.0145 280.7220 0017706 191.2430 350.0952  1.00277582 20683
UTC
Height (km)
Latitude
Longitude
Inclination
Orbital Period
UTC large
Height (km)
Speed (km/s)
/
Latitude / Longitude
Inclination (degrees)
Orbital Period (minutes)
Azimuth
Elevation
Range (km)
Doppler Factor
iOS Compass Heading
iOS Angle

Next 30 passes for location: Hong Kong

Rise time Rise Azimuth (degrees) Set time Set Azimuth (degrees) Duration Max altitude (degrees)

No matching passes for this satellites